MYSat 1
1 44045U 18092F 19199.21304756 .00000862 00000-0 36150-4 0 9999
2 44045 51.6409 227.9251 0012377 187.8125 172.2661 15.35023759 23778
AstroCast 0.2
1 44083U 19018F 19199.73261296 .00000272 00000-0 15243-4 0 9993
2 44083 97.4667 259.4787 0012323 262.7565 97.2270 15.21397260 16488
AISTechSat 3
1 44103U 19018AB 19199.73807333 .00000447 00000-0 22219-4 0 9999
2 44103 97.4546 259.4940 0012140 283.5286 225.0542 15.22655116 16498
AISat 1
1 44104U 19018AC 19199.74467239 .00000365 00000-0 14578-4 0 9996
2 44104 97.5077 261.5200 0057933 321.5869 38.1252 15.30498158 16605
OBJECT A
1 44339U 19036A 19198.99545264 .00000161 00000-0 -11944-4 0 9996
2 44339 24.0007 61.9768 0011005 87.5473 272.6285 14.52652543 3299
OBJECT D
1 44342U 19036D 19199.60805711 .00000164 00000-0 -11215-4 0 9999
2 44342 24.0004 58.0376 0012567 90.5899 269.6030 14.53013620 3384
OBJECT H
1 44346U 19036H 19199.87590462 .00005711 00000-0 88530-4 0 9992
2 44346 28.5278 47.7970 0391385 354.9171 4.7519 14.96015287 3538
OBJECT J
1 44347U 19036J 19199.86693731 .00014012 00000-0 22474-3 0 9993
2 44347 28.5342 47.7383 0388192 354.9423 4.7320 14.96777127 3539
OBJECT K
1 44348U 19036K 19199.86723652 .00004825 00000-0 72607-4 0 9995
2 44348 28.5226 47.7188 0390567 354.6213 5.0266 14.96532937 3538
JAISAT-1
1 44419U 19038F 19198.87226758 .00000346 00000-0 23694-4 0 9997
2 44419 97.4906 160.5902 0021081 203.5815 156.4451 15.12246175 1874
LightSail-2
1 44420U 19036AC 19198.72203105 .00000253 00000-0 10187-4 0 9992
2 44420 24.0046 63.7106 0011544 85.6677 274.5144 14.52525270 1392
/EX
1
0
The following Amateur Radio satellites have been removed from this week's
TLE
distribution. They are part of the SpaceX Falcon Heavy STP-2 launch of June
25,2019 at
06:30 GMT from launch pad LC-39A at the Kennedy Space Center. They have been
indentified by Space-Track.
OBJECT B - NORAD CAT ID 44340 - NPSAT1 (Non-Radio Amateur)
OBJECT C - NORAD CAT ID 44341 - OTB (Non-Radio Amateur)
OBJECT E - NORAD CAT ID 44343 - FORMOSAT7-3/COSMIC2-3 (Non-Radio Amateur)
The following Amateur Radio satellite has been added to this week's TLE
distribution.
LightSail-2 - NORAD CAT ID 44420 - Separated from PROX-1, CAT ID 44330.
1
0
SB KEPS @ AMSAT $ORB19192.N
2Line Orbital Elements 19192.AMSAT
HR AMSAT ORBITAL ELEMENTS FOR AMATEUR SATELLITES IN NASA FORMAT
FROM WA5QGD FORT WORTH,TX July 11, 2019
BID: ORB19192.N
DECODE 2-LINE ELSETS WITH THE FOLLOWING KEY:
1 AAAAAU 00 0 0 BBBBB.BBBBBBBB .CCCCCCCC 00000-0 00000-0 0 DDDZ
2 AAAAA EEE.EEEE FFF.FFFF GGGGGGG HHH.HHHH III.IIII JJ.JJJJJJJJKKKKKZ
KEY: A-CATALOGNUM B-EPOCHTIME C-DECAY D-ELSETNUM E-INCLINATION F-RAAN
G-ECCENTRICITY H-ARGPERIGEE I-MNANOM J-MNMOTION K-ORBITNUM Z-CHECKSUM
TO ALL RADIO AMATEURS BT
AO-07
1 07530U 74089B 19191.00909130 -.00000020 00000-0 15481-3 0 9991
2 07530 101.7448 158.4528 0011871 307.8784 97.6042 12.53638886 43195
UO-11
1 14781U 84021B 19191.49237847 .00000033 00000-0 10204-4 0 9998
2 14781 97.6095 215.1790 0007070 243.5034 116.5455 14.83094428901997
LO-19
1 20442U 90005G 19191.80434069 -.00000008 00000-0 13431-4 0 9996
2 20442 98.6492 133.7685 0012963 84.6262 275.6401 14.32928399539545
HUBBLE
1 20580U 90037B 19190.91850640 .00000344 00000-0 99889-5 0 9996
2 20580 028.4702 071.5739 0002642 356.7283 128.5355 15.09242425404012
MET-2/21
1 22782U 93055A 19191.80103993 .00000071 00000-0 50824-4 0 9998
2 22782 82.5495 145.5300 0023573 114.6373 308.9203 13.83819165305928
AO-27
1 22825U 93061C 19190.90969964 -.00000017 00000-0 11347-4 0 9999
2 22825 098.9037 180.0316 0007442 301.5629 058.4825 14.30061869344718
IO-26
1 22826U 93061D 19190.90642400 -.00000008 00000-0 14682-4 0 9998
2 22826 098.8977 180.0170 0007867 288.7347 071.2980 14.30395595344938
FO-29
1 24278U 96046B 19190.92001374 -.00000032 00000-0 29975-5 0 9997
2 24278 98.5401 341.4530 0350321 184.7956 174.9796 13.53092694130678
NOAA-15
1 25338U 98030A 19191.51994012 .00000062 00000-0 44814-4 0 9996
2 25338 98.7455 212.7466 0010580 173.2746 186.8578 14.25920039100361
GO-32
1 25397U 98043D 19191.40658507 -.00000020 00000-0 10321-4 0 9990
2 25397 98.6893 131.2886 0001360 26.5774 333.5474 14.23667498 90964
ISS
1 25544U 98067A 19191.64362958 .00000242 00000-0 11957-4 0 9999
2 25544 51.6430 244.8938 0007211 126.3371 5.0810 15.50966263178893
NO-44
1 26931U 01043C 19191.73341121 -.00000046 00000-0 14344-4 0 9993
2 26931 67.0521 306.8015 0007003 277.4650 82.5655 14.30546515928125
SO-50
1 27607U 02058C 19190.89571941 -.00000033 00000-0 16342-4 0 9998
2 27607 64.5555 344.7671 0080641 252.4557 106.7723 14.75557203890164
CO-55
1 27844U 03031E 19190.89992822 .00000026 00000-0 31564-4 0 9992
2 27844 098.6831 198.7959 0009276 336.9771 023.0990 14.22184320831260
CO-57
1 27848U 03031J 19190.96848208 .00000025 00000-0 31125-4 0 9994
2 27848 098.6909 199.3681 0009377 348.6456 011.4508 14.21778848831136
RS-22
1 27939U 03042A 19191.80933804 .00000085 00000-0 23900-4 0 9996
2 27939 98.0438 327.1967 0012859 3.5787 356.5511 14.66789839843781
NOAA-18
1 28654U 05018A 19191.24206248 .00000042 00000-0 47585-4 0 9997
2 28654 99.0941 238.5333 0015306 115.9642 244.3108 14.12436675728568
CO-58
1 28895U 05043F 19191.11084378 .00000083 00000-0 24892-4 0 9997
2 28895 97.9620 333.1107 0015374 285.1384 74.8118 14.63673439730618
Falconsat-3
1 30776U 07006E 19191.52433685 .00001958 00000-0 55570-4 0 9992
2 30776 35.4356 311.3335 0003395 302.0399 57.9998 15.36253831684042
CO-65
1 32785U 08021C 19191.13242380 .00000163 00000-0 23248-4 0 9993
2 32785 97.5494 189.8358 0012836 184.8806 175.2289 14.88318357606871
AAUSAT2
1 32788U 08021F 19191.00454023 .00000417 00000-0 43322-4 0 9998
2 32788 97.4961 205.7932 0013185 123.8431 236.4047 14.94742979608101
DO-64
1 32789U 08021G 19190.93255408 .00000856 00000-0 61112-4 0 9990
2 32789 097.4630 239.9558 0013623 058.1952 302.0601 15.06989385610065
CO-66
1 32791U 08021J 19190.98058821 .00000200 00000-0 25670-4 0 9990
2 32791 97.5274 195.6866 0013809 160.5140 199.6610 14.90831527607282
RS-30
1 32953U 08025A 19191.45575612 .00000021 00000-0 75656-4 0 9999
2 32953 82.5017 131.2315 0020434 80.7142 279.6247 12.43090362505016
PRISM
1 33493U 09002B 19191.52444618 .00000765 00000-0 72476-4 0 9996
2 33493 98.1214 113.3078 0016541 109.2055 251.0957 14.96668228568416
NOAA-19
1 33591U 09005A 19191.50861909 .00000058 00000-0 57107-4 0 9991
2 33591 99.1801 183.1605 0013284 320.9208 39.1002 14.12363795536984
TISAT-1
1 36799U 10035E 19191.42436468 .00000295 00000-0 35859-4 0 9991
2 36799 98.1584 344.2999 0012663 21.3483 338.8259 14.91114490488002
JUGNU
1 37839U 11058B 19191.13743226 .00000306 00000-0 21354-4 0 9992
2 37839 19.9597 204.7296 0018652 203.0243 217.3249 14.12653576400291
